Skip Navigation Linkswww.weather.gov 
NOAA logo - Click to go to the NOAA homepage National Weather Service Forecast Office   NWS logo - Click to go to the NWS homepage    
Los Angeles, California
navigation bar decoration      
spacer
Printer Friendly  |   Go Back  |  Version: Current   1   2   3   4   5   6   7   8   9   10   |  Font:  A A A  |  
This version is NOT current and may no longer be valid!

HOURLY WEATHER ROUNDUP
 
 ASUS46 KSTO 280409
RWRCA

NORTHERN AND CENTRAL CA REGIONAL WEATHER ROUNDUP
NATIONAL WEATHER SERVICE SACRAMENTO CA
900 PM PDT FRI MAR 27 2015

NOTE: FAIR INDICATES FEW OR NO CLOUDS BELOW 12,000 FEET WITH NO
SIGNIFICANT WEATHER AND/OR OBSTRUCTIONS TO VISIBILITY.

CAZ001-003-280500-
NORTHWEST AREA

CITY SKY/WX TMP DP RH WIND PRES REMARKS
CRESCENT CITY LGT RAIN 53 52 96 E3 30.31R
ARCATA NOT AVBL
SHELTER COVE NOT AVBL
UKIAH PTCLDY 57 47 69 N6 30.20R
$$

CAZ006-505>513-280500-
BAY AREA

CITY SKY/WX TMP DP RH WIND PRES REMARKS
SANTA ROSA CLEAR 55 50 83 NW7 30.13R
SAN RAFAEL N/A 58 MM MM MISG
NAPA CLEAR 53 50 89 SW9 30.13R
CONCORD CLEAR 59 51 75 S10 30.13R
OAKLAND CITY N/A 59 MM MM MISG
OAKLAND PTCLDY 57 51 80 W13 30.16R
SAN FRAN CITY N/A 55 MM 85 MISG
SAN FRAN ARPT MOCLDY 58 55 90 W17G24 30.16S
LIVERMORE CLEAR 57 51 80 NW12 30.14R
HAYWARD CLOUDY 59 52 77 W6 30.16R
REDWOOD CITY N/A MM MM MM MISG
MOFFETT ARPT CLEAR 57 50 77 N10 30.18R
SAN JOSE ARPT PTCLDY 57 51 80 NW9 30.17R
$$
CAZ034-037-514>518-280500-
CENTRAL COAST

CITY SKY/WX TMP DP RH WIND PRES REMARKS
WATSONVILLE CLEAR 57 53 86 NE5 30.15R
SALINAS CLOUDY 57 51 80 W12 30.16R
MONTEREY CLOUDY 55 51 86 S8 30.17R
PT PIEDRAS BLS NOT AVBL
SAN LUIS OBISP CLEAR 52 50 93 NW3 30.12R
SANTA MARIA CLOUDY 55 52 89 CALM 30.13R
$$
CAZ015-016-280500-
NORTHERN SACRAMENTO VALLEY

CITY SKY/WX TMP DP RH WIND PRES REMARKS
REDDING CLOUDY 74 52 46 W7 30.01R
RED BLUFF PTCLDY 72 51 47 CALM 30.02R
OROVILLE CLEAR 72 47 40 SE9 30.05R
$$
CAZ016>018-280500-
SOUTHERN SACRAMENTO VALLEY

CITY SKY/WX TMP DP RH WIND PRES REMARKS
AUBURN CLEAR 66 41 39 SE5 30.12R
BEALE AFB CLEAR 64 53 66 SE8 30.04R
LINCOLN FAIR 61 50 67 S9 30.05R
MARYSVILLE CLEAR 67 55 65 S10 30.05R
SAC INTL ARPT CLEAR 64 53 67 S8 30.05R
MATHER AIRPORT CLEAR 59 54 82 S6 30.08R
DOWNTOWN SAC N/A 65 MM MM MISG
SAC EXEC ARPT CLEAR 63 51 65 SW9 30.07R
VACAVILLE CLEAR 64 48 56 S7 30.08R
TRAVIS AFB CLEAR 58 50 74 SW21 30.07R
$$
CAZ019>021-280500-
SAN JOAQUIN VALLEY

CITY SKY/WX TMP DP RH WIND PRES REMARKS
STOCKTON CLEAR 66 50 56 W13 30.08R
MODESTO CLEAR 71 47 42 NW9 30.07R
MERCED CLEAR 71 52 50 N14 30.06R
LEMOORE CLEAR 77 49 37 NW14 30.05R
FRESNO CLEAR 77 48 35 NW15 30.04R
HANFORD CLEAR 80 49 33 NW14G22 30.03R
PORTERVILLE CLEAR 68 52 56 CALM 30.04R
BAKERSFIELD CLEAR 78 39 24 N8 30.02R
$$
CAZ011-012-071-280500-
NORTHERN MOUNTAINS

CITY SKY/WX TMP DP RH WIND PRES REMARKS
YREKA MOCLDY 58 36 43 MISG 30.12R
MOUNT SHASTA MOCLDY 60 45 57 CALM 30.11R
ALTURAS CLEAR 55 38 52 W12 30.13R
$$
CAZ011-012-071-280500-
SIERRA NEVADA MTNS

CITY SKY/WX TMP DP RH WIND PRES REMARKS
BLUE CANYON CLEAR 54 40 59 S6 30.26S
TRUCKEE CLEAR 46 32 57 S3 30.26S
TAHOE VLY ARPT CLEAR 53 37 54 S9 30.28R
MAMMOTH LAKES FAIR 52 27 37 CALM 30.31R
$$



Webmaster
US Dept of Commerce
National Oceanic and Atmospheric Administration
National Weather Service
Los Angeles/Oxnard Weather Forecast Office
520 North Elevar Street
Oxnard, CA 93030

Tel: (805) 988-6610

Disclaimer
Information Quality
Credits
Glossary
Organization
Privacy Policy
Freedom of Information Act
About Us
Career Opportunities